{"data":{"norad_id":62396,"intl_designator":"2024-247V","name":"BANDWAGON-2 OBJECT V","alt_names":[],"object_type":"PAYLOAD","status":"ACTIVE","operator":null,"country":"TBD","launch_date":"2024-12-21","launch_site_code":"AFWTR","launch_vehicle":null,"mission":null,"orbit_class":"UNKNOWN","rcs_meters":null,"size_class":null,"mass_kg":null,"dimensions":null,"purposes":[],"wikipedia_slug":null,"has_3d_model":false,"image_url":null,"decayed_at":null,"tle_current":{"epoch":"2026-05-25T01:30:23.015232Z","epoch_age_seconds":79794,"freshness":"FRESH","line1":"1 62396U 24247V   26145.06276638  .00041020  00000+0  70466-3 0  9993","line2":"2 62396  44.9946  20.5549 0007619 173.4052 186.6941 15.50495558 79888","mean_motion":15.50495558,"eccentricity":0.0007619,"inclination_deg":44.9946,"raan_deg":20.5549,"arg_perigee_deg":173.4052,"mean_anomaly_deg":186.6941,"bstar":0.00070466,"rev_number":7988,"period_min":92.873532759905,"perigee_km":410.1022729149,"apogee_km":420.45407895999,"semimajor_km":6793.4151759374,"source":"CELESTRAK","updated_at":"2026-05-25T13:38:02.968797Z"}}}